{"data":{"norad_id":61180,"epoch":"2026-09-22T20:25:46.706592Z","epoch_age_seconds":91506,"freshness":"FRESH","line1":"1 61180U 24166B   26265.85123503  .00018375  00000+0  12228-3 0  9994","line2":"2 61180  96.6622 153.3017 0000761 134.8241 225.3088 15.75457651116110","mean_motion":15.75457651,"eccentricity":7.61e-5,"inclination_deg":96.6622,"raan_deg":153.3017,"arg_perigee_deg":134.8241,"mean_anomaly_deg":225.3088,"bstar":0.00012228,"rev_number":11611,"period_min":91.402012557175,"perigee_km":342.81769401155,"apogee_km":343.84070116683,"semimajor_km":6721.4661975892,"source":"CELESTRAK","updated_at":"2026-09-23T09:00:20.808859Z"}}